Flag for Switzerland Weather past 2 weeks in Reinach, Basel-Land, Switzerland

Now
71 °F

Passing clouds.


Feels Like: 75 °F
Forecast: 61 / 76 °F
Wind: 2 mph from Southwest

Location: Bale-Mulhouse

Current Time: Aug 31, 2015 at 10:57:57 PM

Latest Report: Aug 31, 2015 at 10:00 PM


Visibility: 25 mi

Pressure: 29.88 "Hg

Humidity: 66%

Dew point: 60 °F

Location of ReinachLocation

Historic Weather in Reinach — Graph

°F

Reinach temperature yesterday

Maximum temperature yesterday: 93 °F (at 4:00 PM)
Minimum temperature yesterday: 65 °F (at 4:00 AM)
Average temperature yesterday: 78 °F

Past Weeks' High & Low Weather Summary

 TemperatureHumidityPressure
High93 °F (Aug 30, 4:00 PM)99% (Aug 20, 8:00 AM)30.26 "Hg (Aug 20, 8:00 AM)
Low49 °F (Aug 20, 7:00 AM)23% (Aug 31, 2:00 PM)29.68 "Hg (Aug 24, 1:00 PM)
Average68 °F69%30.01 "Hg
* Reported Aug 16 9:00 PM — Aug 31 9:00 PM, Reinach, Weather by CustomWeather, © 2015

Note: Actual official high and low records may vary slightly from our data, if they occured in-between our weather recording intervals... More about our weather records

Advertising

Reinach weather history for previous 24 hours

 ConditionsComfort  
Time TempWeatherWind HumidityBarometerVisibility
9:00 PM
Mon, Aug 31
72 °FPassing clouds.3 mph65%29.87 "Hg19 mi
8:00 PM82 °FPassing clouds.5 mph42%29.86 "Hg19 mi
7:00 PM89 °FPassing clouds.9 mph31%29.84 "Hg12 mi
6:00 PM92 °FPassing clouds.9 mph27%29.83 "Hg12 mi
5:00 PM93 °FPassing clouds.3 mph28%29.83 "Hg12 mi
4:00 PM91 °FPassing clouds.6 mph31%29.85 "Hg12 mi
3:00 PM92 °FPassing clouds.8 mph32%29.87 "Hg12 mi
2:00 PM93 °FPassing clouds.17 mph23%29.88 "Hg25 mi
1:00 PM90 °FPassing clouds.7 mph31%29.91 "Hg25 mi
12:00 PM86 °FPassing clouds.6 mph38%29.94 "Hg25 mi
11:00 AM80 °FScattered clouds.5 mph47%29.97 "Hg25 mi
10:00 AM73 °FPartly sunny.5 mph59%29.99 "Hg25 mi
9:00 AM68 °FPartly sunny.5 mph67%30.02 "Hg25 mi
8:00 AM66 °FPartly sunny.3 mph71%30.03 "Hg25 mi
7:00 AM63 °FScattered clouds.5 mph75%30.03 "Hg25 mi
6:00 AM61 °FPassing clouds.3 mph80%30.03 "Hg25 mi
5:00 AM62 °FPassing clouds.5 mph79%30.03 "Hg12 mi
4:00 AM63 °FMild.3 mph79%30.02 "Hg31 mi
3:00 AM63 °FMild.5 mph78%30.02 "Hg34 mi
2:00 AM63 °FMild.2 mph79%30.01 "Hg37 mi
1:00 AM64 °FMild.1 mph82%30.03 "Hg37 mi
12:00 AM64 °FPassing clouds.1 mph82%30.04 "Hg12 mi
10:00 PM
Sun, Aug 30
72 °FPassing clouds.2 mph65%30.03 "Hg12 mi
Weather by CustomWeather, © 2015

See weather overviewHow to use our weather pages